Weather in Fredrikstad

Norway     59°13′02″N   10°56′21″E
temp.,
°C
wind,
m/s
gust,
m/s
humid.,
%
clouds,
%
prec.,
mm/h
press.,
hPa
HPBL,
m
17 may, mon
mon1723:00+9ene378998 0.2 1003193
02:00+8ne379593 0.2 1003178
05:00+9ne3794100 0.0 1001407
08:00+10ne2492100 0.2 1001388
11:00+11e1287100 1.0 1000339
14:00+8nne3594100 5.3 1001399
17:00+9n2384100 0.9 1001519
20:00+9ne1284100 0.9 1001266
18 may, tue
tue1823:00+7ese019283 0.0 100225
02:00+6sse11935 0.0 100316
05:00+6s129267 0.0 100359
08:00+10s248495 0.1 1004334
11:00+11ssw2476100 0.1 1005480
14:00+12ssw45738 0.1 1006817
17:00+12ssw45695 0.0 1006668
20:00+11s35810 0.0 1007394
19 may, wed
wed1923:00+7sse23941 0.0 100784
02:00+6e22952 0.0 100758
05:00+5ne22941 0.0 100740
08:00+10ene12744 0.0 1007340
11:00+14sw21545 0.0 1007929
14:00+13sw54601 0.0 1007859
17:00+12ssw56671 0.0 1007644
20:00+10s58817 0.0 1007383
20 may, thu
thu2023:00+9s49885 0.0 1007337
02:00+9s48895 0.0 1007282
05:00+7s37860 0.0 1008307
08:00+10sse447220 0.0 1008836
11:00+12s345613 0.0 10081280
14:00+13ssw335266 0.0 10091076
17:00+14sw215268 0.0 10091036
20:00+12wsw346415 0.0 1009264
21 may, fri
fri2123:00+8sw22765 0.0 100925
02:00+8s22865 0.0 101016
05:00+7ese12925 0.0 101034
08:00+10sse227218 0.0 1009441
11:00+13s345930 0.0 1009868
14:00+12s6766100 0.0 1008787
17:00+11ssw6876100 0.0 1008859
20:00+10s3685100 0.1 1007585